Weather History for KONP - February, 2014

Change the Weather History Date:

Monday, February 24, 2014

  Actual Average (KEUG) Record (KEUG)
Temperature  
Mean Temperature 52 °F 44 °F  
Max Temperature 59 °F 53 °F 67 °F (1992)
Min Temperature 44 °F 35 °F 23 °F (1913)
Degree Days  
Heating Degree Days 14 21  
Month to date heating degree days 534  
Since 1 July heating degree days 3244  
Cooling Degree Days 0 0  
Month to date cooling degree days 0  
Year to date cooling degree days 0  
Growing Degree Days 2 (Base 50)    
Moisture  
Dew Point 50 °F    
Average Humidity 95    
Maximum Humidity 100    
Minimum Humidity 88    
Precipitation  
Precipitation 0.01 in 0.19 in 1.76 in (1958)
Month to date precipitation 4.68  
Year to date precipitation 11.55  
Sea Level Pressure  
Sea Level Pressure 30.00 in    
Wind  
Wind Speed 6 mph (ESE)    
Max Wind Speed 12 mph    
Max Gust Speed -    
Visibility 8 miles    
Events Rain    
T = Trace of Precipitation, MM = Missing Value Source: NWS Daily Summary

Daily Weather History Graph

Daily Weather History Graph

Search for Another Location

Airport or City:

Trip Planner

Search our weather history database for the weather conditions in past years. The results will help you decide how hot, cold, wet, or windy it might be!

Date:

Astronomy

Feb. 24, 2014 Rise Set
Actual Time 7:01 AM PST 5:57 PM PST
Civil Twilight 6:32 AM PST 6:27 PM PST
Nautical Twilight 5:58 AM PST 7:00 PM PST
Astronomical Twilight 5:25 AM PST 7:34 PM PST
Moon 3:13 AM PST (2/24) 12:57 PM PST (2/24)
Length of Visible Light 11h 54m
Length of Day
10h 55m
Waning Crescent, 27% of the Moon is Illuminated
Feb 24
Waning Crescent
Mar 1
New
Mar 8
First Quarter
Mar 16
Full
Mar 23
Last Quarter

Hourly Weather History & Observations

Time (PST) Temp. Windchill Dew Point Humidity Pressure Visibility Wind Dir Wind Speed Gust Speed Precip Events Conditions
12:15 AM 44.6 °F 40.7 °F 44.6 °F 100% 30.04 in 10.0 mi East 6.9 mph - N/A   Overcast
12:35 AM 46.4 °F 44.3 °F 44.6 °F 93% 30.04 in 4.0 mi SE 4.6 mph - N/A Rain Heavy Rain
12:55 AM 46.4 °F 43.5 °F 44.6 °F 93% 30.03 in 7.0 mi East 5.8 mph - N/A   Light Drizzle
1:15 AM 46.4 °F 42.4 °F 44.6 °F 93% 30.03 in 10.0 mi East 8.1 mph - N/A   Overcast
1:35 AM 44.6 °F 40.2 °F 44.6 °F 100% 30.03 in 10.0 mi East 8.1 mph - N/A   Overcast
1:55 AM 44.6 °F 40.7 °F 44.6 °F 100% 30.03 in 7.0 mi East 6.9 mph - N/A   Overcast
2:15 AM 44.6 °F 40.7 °F 44.6 °F 100% 30.02 in 10.0 mi East 6.9 mph - N/A   Overcast
2:35 AM 44.6 °F 41.4 °F 44.6 °F 100% 30.02 in 10.0 mi East 5.8 mph - N/A   Overcast
2:55 AM 44.6 °F 40.2 °F 44.6 °F 100% 30.02 in 10.0 mi East 8.1 mph - N/A   Overcast
3:15 AM 44.6 °F 41.4 °F 44.6 °F 100% 30.01 in 10.0 mi East 5.8 mph - N/A   Overcast
3:35 AM 46.4 °F 43.5 °F 44.6 °F 93% 30.01 in 7.0 mi East 5.8 mph - N/A   Overcast
3:55 AM 44.6 °F 41.4 °F 44.6 °F 100% 30.01 in 10.0 mi East 5.8 mph - N/A   Overcast
4:15 AM 46.4 °F 42.9 °F 44.6 °F 93% 30.01 in 7.0 mi East 6.9 mph - N/A   Overcast
4:35 AM 46.4 °F 43.5 °F 44.6 °F 93% 30.01 in 5.0 mi East 5.8 mph - N/A   Overcast
4:55 AM 46.4 °F 44.3 °F 44.6 °F 93% 30.01 in 10.0 mi East 4.6 mph - N/A   Overcast
5:15 AM 46.4 °F 44.3 °F 44.6 °F 93% 30.01 in 7.0 mi East 4.6 mph - N/A   Light Drizzle
5:35 AM 46.4 °F 44.3 °F 44.6 °F 93% 30.01 in 5.0 mi East 4.6 mph - N/A   Overcast
5:55 AM 46.4 °F 43.5 °F 44.6 °F 93% 30.00 in 7.0 mi East 5.8 mph - N/A   Overcast
6:15 AM 46.4 °F 44.3 °F 44.6 °F 93% 30.00 in 10.0 mi ESE 4.6 mph - N/A   Overcast
6:35 AM 46.4 °F 43.5 °F 44.6 °F 93% 30.00 in 5.0 mi East 5.8 mph - N/A   Overcast
6:55 AM 46.4 °F 44.3 °F 44.6 °F 93% 30.00 in 7.0 mi East 4.6 mph - N/A   Overcast
7:15 AM 46.4 °F 43.5 °F 44.6 °F 93% 30.00 in 5.0 mi East 5.8 mph - N/A   Overcast
7:35 AM 46.4 °F 43.5 °F 46.4 °F 100% 30.00 in 3.0 mi East 5.8 mph - N/A   Overcast
7:55 AM 46.4 °F 43.5 °F 46.4 °F 100% 30.00 in 10.0 mi East 5.8 mph - 0.01 in   Overcast
8:15 AM 46.4 °F 44.3 °F 46.4 °F 100% 30.01 in 7.0 mi East 4.6 mph - N/A Rain Rain
8:35 AM 46.4 °F 44.3 °F 46.4 °F 100% 30.02 in 7.0 mi ESE 4.6 mph - N/A   Light Drizzle
8:55 AM 50.0 °F - 48.2 °F 94% 30.02 in 1.5 mi ESE 3.5 mph - N/A   Light Drizzle
9:15 AM 50.0 °F - 48.2 °F 94% 30.02 in 1.5 mi East 4.6 mph - N/A   Light Drizzle
9:35 AM 50.0 °F - 50.0 °F 100% 30.02 in 2.0 mi Calm Calm - N/A   Overcast
9:55 AM 51.8 °F - 51.8 °F 100% 30.03 in 2.5 mi SSE 3.5 mph - N/A   Overcast
10:15 AM 51.8 °F - 51.8 °F 100% 30.03 in 2.5 mi SSE 3.5 mph - N/A   Overcast
10:35 AM 51.8 °F - 51.8 °F 100% 30.03 in 7.0 mi SSE 3.5 mph - N/A   Overcast
10:55 AM 53.6 °F - 53.6 °F 100% 30.04 in 7.0 mi South 4.6 mph - N/A   Overcast
11:15 AM 53.6 °F - 53.6 °F 100% 30.04 in 4.0 mi South 6.9 mph - N/A   Overcast
11:35 AM 53.6 °F - 53.6 °F 100% 30.03 in 2.5 mi South 4.6 mph - N/A   Overcast
11:55 AM 53.6 °F - 53.6 °F 100% - 2.5 mi South 6.9 mph - N/A   Overcast
12:15 PM 53.6 °F - 53.6 °F 100% 30.03 in 4.0 mi South 6.9 mph - N/A   Overcast
12:35 PM 53.6 °F - 53.6 °F 100% 30.03 in 4.0 mi South 8.1 mph - N/A   Overcast
12:55 PM 55.4 °F - 53.6 °F 94% 30.02 in 10.0 mi SSE 6.9 mph - N/A   Overcast
1:15 PM 55.4 °F - 53.6 °F 94% 30.02 in 10.0 mi South 5.8 mph - N/A   Light Drizzle
1:35 PM 55.4 °F - 53.6 °F 94% 30.00 in 10.0 mi East 4.6 mph - N/A   Overcast
1:55 PM 55.4 °F - 53.6 °F 94% 30.00 in 10.0 mi ENE 3.5 mph - N/A   Mostly Cloudy
2:20 PM 55.4 °F - 53.6 °F 94% 30.00 in 10.0 mi Calm Calm - N/A   Mostly Cloudy
2:35 PM 55.4 °F - 53.6 °F 94% 30.01 in 7.0 mi West 3.5 mph - N/A Rain Light Rain
2:55 PM 55.4 °F - 53.6 °F 94% 30.00 in 7.0 mi Calm Calm - N/A   Overcast
3:15 PM 53.6 °F - 51.8 °F 94% 30.00 in 5.0 mi Calm Calm - N/A   Overcast
3:35 PM 55.4 °F - 51.8 °F 88% 30.00 in 7.0 mi Calm Calm - N/A   Mostly Cloudy
3:55 PM 55.4 °F - 53.6 °F 94% 29.99 in 7.0 mi Calm Calm - N/A   Mostly Cloudy
4:15 PM 59.0 °F - 55.4 °F 88% 29.98 in 10.0 mi East 4.6 mph - N/A   Mostly Cloudy
4:35 PM 59.0 °F - 55.4 °F 88% 29.98 in 10.0 mi East 6.9 mph - N/A   Mostly Cloudy
4:55 PM 59.0 °F - 55.4 °F 88% 29.97 in 10.0 mi East 4.6 mph - N/A   Mostly Cloudy
5:15 PM 59.0 °F - 55.4 °F 88% 29.97 in 10.0 mi East 3.5 mph - N/A   Mostly Cloudy
5:35 PM 57.2 °F - 55.4 °F 94% 29.97 in 10.0 mi Calm Calm - N/A   Overcast
5:55 PM 55.4 °F - 53.6 °F 94% 29.97 in 10.0 mi Calm Calm - N/A   Mostly Cloudy
6:15 PM 53.6 °F - 51.8 °F 94% 29.97 in 2.5 mi Calm Calm - N/A   Scattered Clouds
6:35 PM 53.6 °F - 51.8 °F 94% 29.98 in 2.5 mi Calm Calm - N/A   Scattered Clouds
6:55 PM 51.8 °F - 51.8 °F 100% 29.98 in 4.0 mi Calm Calm - N/A   Scattered Clouds
7:15 PM 55.4 °F - 53.6 °F 94% 29.97 in 10.0 mi East 3.5 mph - N/A   Scattered Clouds
7:35 PM 55.4 °F - 53.6 °F 94% 29.97 in 10.0 mi East 6.9 mph - N/A   Mostly Cloudy
7:55 PM 55.4 °F - 53.6 °F 94% 29.96 in 10.0 mi East 9.2 mph - N/A   Mostly Cloudy
8:15 PM 55.4 °F - 53.6 °F 94% 29.97 in 10.0 mi East 9.2 mph - N/A   Scattered Clouds
8:35 PM 55.4 °F - 53.6 °F 94% 29.97 in 10.0 mi East 6.9 mph - N/A   Scattered Clouds
8:55 PM 55.4 °F - 53.6 °F 94% 29.97 in 10.0 mi ENE 4.6 mph - N/A   Mostly Cloudy
9:15 PM 53.6 °F - 51.8 °F 94% 29.98 in 10.0 mi East 8.1 mph - N/A   Scattered Clouds
9:35 PM 53.6 °F - 51.8 °F 94% 29.98 in 10.0 mi East 11.5 mph - N/A   Scattered Clouds
10:00 PM 53.6 °F - 51.8 °F 94% 29.98 in 10.0 mi East 8.1 mph - N/A   Scattered Clouds
10:15 PM 53.6 °F - 51.8 °F 94% 29.98 in 10.0 mi East 6.9 mph - N/A   Scattered Clouds
10:35 PM 53.6 °F - 51.8 °F 94% 29.98 in 10.0 mi East 9.2 mph - N/A   Clear
10:55 PM 53.6 °F - 51.8 °F 94% 29.99 in 10.0 mi East 9.2 mph - N/A   Clear
11:15 PM 51.8 °F - 50.0 °F 94% 29.98 in 10.0 mi East 10.4 mph - N/A   Mostly Cloudy
11:30 PM 51.8 °F - 50.0 °F 94% 29.99 in 10.0 mi East 9.2 mph - N/A   Scattered Clouds
11:55 PM 51.8 °F - 50.0 °F 94% 29.98 in 10.0 mi East 9.2 mph - N/A   Scattered Clouds